Regional Weather Roundup
Issued by NWS Little Rock, AR

Home | Current Version | Previous Version | Text Only | Print | Product List | Glossary On
Versions: 1 2 3 4 5 6 7 8 9 10 11 12 13 14 15 16 17 18 19 20 21 22 23 24 25 26 27 28 29 30 31 32 33 34 35 36 37 38 39 40 41 42 43 44 45 46 47 48 49 50
000
ASUS44 KLZK 232205
RWRLZK

WEATHER ROUNDUP FOR ARKANSAS
NATIONAL WEATHER SERVICE LITTLE ROCK AR
500 PM CDT THU MAR 23 2017

NOTE: "FAIR" INDICATES FEW OR NO CLOUDS BELOW 12,000 FEET WITH NO
SIGNIFICANT WEATHER AND/OR OBSTRUCTIONS TO VISIBILITY.

ARZ001-003-010-029-232300-
NORTHWEST ARKANSAS

CITY           SKY/WX    TMP DP  RH WIND       PRES   REMARKS
FAYETTEVILLE   SUNNY     74  50  42 SE15G25   29.97F
FORT SMITH     SUNNY     83  43  24 S13       29.95F
HARRISON       SUNNY     78  43  28 S17       30.01F
BENTONVILLE    SUNNY     75  46  35 S20       29.97F
ROGERS         SUNNY     75  48  38 S18G31    29.97F
SILOAM SPGS    SUNNY     73  48  40 S17G28    29.95F
HIGHFILL       SUNNY     75  49  39 S23G31    29.96F
SPRINGDALE     SUNNY     73  48  40 S14G23    29.99F
$$

ARZ004-005-016-232300-
NORTH CENTRAL ARKANSAS

CITY           SKY/WX    TMP DP  RH WIND       PRES   REMARKS
BATESVILLE     SUNNY     75  52  43 E10       30.08F
FLIPPIN        SUNNY     77  48  36 SE9G18    30.00F
MTN HOME       SUNNY     78  46  32 S13G21    30.02F
$$

ARZ040-041-232300-
WEST CENTRAL ARKANSAS

CITY           SKY/WX    TMP DP  RH WIND       PRES   REMARKS
MENA           SUNNY     81  54  39 S7        30.01F
$$

ARZ009-017-025-026-028-232300-
NORTHEAST ARKANSAS

CITY           SKY/WX    TMP DP  RH WIND       PRES   REMARKS
CORNING        FAIR      72  50  46 SE13      30.12F
JONESBORO      SUNNY     75  51  43 S10       30.10F
NEWPORT        SUNNY     76  54  46 SE12      30.09F
WALNUT RIDGE   SUNNY     73  52  46 S9        30.10F
BLYTHEVILLE    SUNNY     74  50  42 SE10      30.12F
$$

ARZ022-023-033-042-044-232300-
CENTRAL ARKANSAS

CITY           SKY/WX    TMP DP  RH WIND       PRES   REMARKS
LITTLE ROCK    MOSUNNY   82  54  37 S15G22    30.04F
N LITTLE ROCK    N/A     81  55  39 S9G20     30.05F
JACKSONVILLE   SUNNY     82  58  43 SE15G23   30.04F
CONWAY           N/A     82  55  39 S15G22    30.01F
SEARCY         SUNNY     80  59  48 S13G20    30.07
HOT SPRINGS    SUNNY     83  47  28 S10       30.04F
RUSSELLVILLE   SUNNY     81  44  27 S12G22    30.00F
CLINTON        FAIR      77  54  44 SE13      30.04F
$$

ARZ036-232300-
EAST ARKANSAS

CITY           SKY/WX    TMP DP  RH WIND       PRES   REMARKS
WEST MEMPHIS   SUNNY     79  54  41 S18       30.10F
$$

ARZ050-053-066-070-073-232300-
SOUTHWEST ARKANSAS

CITY           SKY/WX    TMP DP  RH WIND       PRES   REMARKS
ARKADELPHIA    FAIR      83  53  35 S13       30.03F
CAMDEN         SUNNY     86  41  20 S14G20    30.04F
TEXARKANA      SUNNY     83  50  31 S16G25    30.01F
EL DORADO      SUNNY     84  48  28 S14       30.06F
DE QUEEN       SUNNY     83  54  36 S12G22    29.96F
$$

ARZ056-057-069-232300-
SOUTHEAST ARKANSAS

CITY           SKY/WX    TMP DP  RH WIND       PRES   REMARKS
PINE BLUFF     SUNNY     83  53  35 S18       30.06F
STUTTGART      SUNNY     82  52  34 S16       30.08F
MONTICELLO     SUNNY     83  53  35 S13G24    30.08F

$$





USA.gov is the U.S. government's official web portal to all federal, state and local government web resources and services.